Theta_e
308 308 308 308 308 308 308 306 304 303 303 304 305 306 307 306 306 310 313 313 313 309 307 308 311 311 313 315 320 321 328 330 330 329 327 324 324 324 323 323 323 324 331 338 339
307 307 307 307 308 308 307 303 303 304 304 305 305 305 307 307 311 315 314 311 307 306 307 312 312 313 312 315 318 321 323 330 329 328 328 327 327 326 324 323 324 323 333 336 337
306 306 307 307 306 306 305 304 302 304 304 305 304 305 306 309 316 315 309 305 306 306 306 311 311 312 312 313 314 320 322 323 326 327 328 328 328 327 326 323 323 323 325 333 335
305 306 306 301 302 302 303 302 302 303 304 305 304 305 306 314 321 314 308 310 312 312 314 314 310 310 313 312 314 313 317 322 324 326 328 328 327 328 328 326 326 325 325 325 333
308 307 306 302 300 300 301 301 301 303 304 304 304 305 309 318 318 309 311 311 312 313 315 313 311 310 308 312 313 314 315 315 317 319 322 325 327 328 328 328 328 327 327 325 327
307 305 302 300 299 298 301 300 301 303 304 304 304 306 316 320 311 311 311 312 312 312 312 312 311 311 312 310 310 311 312 314 315 315 316 318 321 325 327 328 329 329 327 326 326
309 308 307 303 299 299 302 301 302 304 305 305 305 312 314 314 311 310 311 311 312 312 312 313 312 311 310 310 311 312 311 312 313 315 316 317 319 320 323 326 328 329 329 328 326
309 309 308 307 305 304 303 301 302 306 307 305 306 314 316 315 309 310 310 309 311 311 311 311 312 311 311 310 311 310 309 310 313 315 316 316 317 318 319 324 326 327 329 329 328
308 306 307 307 306 305 304 301 303 306 309 307 312 314 319 310 311 310 309 309 311 311 312 312 311 311 311 309 308 309 310 310 311 312 313 314 317 317 318 320 324 324 327 328 328
305 304 305 305 305 304 303 304 311 312 313 314 314 315 315 312 310 309 309 311 311 311 313 313 310 309 309 309 310 310 309 310 311 311 310 309 311 313 316 318 320 322 323 327 328
302 304 304 304 302 303 304 312 313 315 314 319 319 315 314 312 310 310 311 311 311 312 312 311 310 309 310 311 312 312 313 313 313 313 312 312 313 313 313 313 316 320 323 324 325
304 301 304 304 302 302 303 311 311 311 311 312 312 313 312 310 309 311 311 311 311 309 309 309 309 311 311 312 312 313 313 313 313 313 312 312 312 313 313 313 313 314 319 323 325
305 301 303 305 305 310 309 314 312 312 311 313 314 311 312 310 310 311 311 311 310 309 309 310 310 311 312 311 312 312 312 313 313 313 312 312 313 313 313 312 313 314 315 319 325
305 302 303 305 309 312 313 312 312 311 312 314 310 311 310 310 310 311 311 310 310 310 309 308 308 310 312 312 312 313 314 315 314 311 311 311 312 311 312 312 313 314 314 316 320
304 302 304 303 307 312 311 312 313 312 325 313 311 310 311 310 311 312 311 310 310 309 309 308 308 312 312 313 314 315 314 313 313 311 308 309 309 310 311 312 312 312 314 316 319
304 303 305 312 310 314 312 312 313 319 325 311 312 311 310 311 312 312 311 310 310 309 309 309 310 310 314 313 313 314 315 314 312 308 309 309 309 309 309 310 312 312 313 316 319
305 306 306 307 313 312 311 312 318 325 315 313 312 312 311 311 313 311 311 310 310 311 311 311 310 310 313 313 311 311 315 317 313 310 311 310 313 313 314 313 311 312 313 313 314
306 309 308 309 312 312 310 315 322 319 314 313 312 312 312 313 312 312 311 310 312 311 311 310 310 309 312 310 309 310 313 316 318 314 313 311 313 311 313 314 314 313 313 312 313
306 311 313 315 314 311 311 320 321 315 312 312 312 313 313 313 311 311 311 311 311 311 312 311 313 311 311 309 308 308 312 310 314 315 318 315 313 313 313 315 317 318 316 314 315
305 311 315 314 311 311 313 318 316 311 310 310 313 314 313 312 311 310 311 313 313 312 311 312 314 311 311 311 311 312 311 312 317 317 319 315 315 315 322 321 318 317 318 318 317
308 316 314 311 309 313 317 317 315 311 310 310 312 313 313 312 311 311 311 311 313 312 311 311 312 313 311 311 313 314 315 316 317 318 319 317 314 321 319 318 317 315 316 318 319
309 316 313 309 312 317 317 314 313 314 311 311 312 313 313 313 312 312 312 313 313 312 313 313 314 313 312 310 313 313 313 316 319 317 315 317 317 317 316 316 316 315 317 320 321
310 314 312 311 316 313 314 313 313 312 311 311 311 312 312 313 314 312 313 312 313 313 314 314 313 313 311 310 314 314 312 312 316 317 318 319 316 315 315 314 315 316 319 319 319
311 315 313 311 311 312 312 312 313 313 313 311 312 311 312 313 311 312 311 312 311 311 314 314 313 313 315 313 312 313 313 313 312 314 316 315 314 317 317 315 315 315 316 317 319
312 312 308 309 308 308 312 312 313 315 312 311 311 309 310 313 312 311 310 310 311 312 313 313 316 315 314 314 313 313 313 314 313 312 316 317 317 317 317 316 315 317 318 317 316
307 307 306 306 308 309 313 313 312 312 310 310 310 311 309 310 310 310 310 311 312 311 313 314 316 315 316 314 313 312 313 315 314 313 314 315 318 317 316 316 317 316 316 316 317
306 306 306 307 308 308 310 309 310 309 310 310 309 309 309 309 309 310 309 310 310 311 313 316 316 317 317 313 314 314 312 314 315 315 314 318 317 316 317 317 316 316 316 320 324
Wind_Speed
19 20 20 20 20 20 20 19 19 18 16 17 19 20 21 21 24 16 6 4 8 8 10 14 10 12 13 5 8 3 4 9 16 18 18 15 8 10 5 8 8 6 8 4 22
20 20 21 22 22 21 21 20 19 17 17 18 20 21 21 21 22 13 8 6 3 6 5 7 7 8 4 5 6 6 7 16 11 15 15 16 17 13 8 8 10 11 4 20 23
20 21 21 22 22 22 21 20 19 18 18 19 22 21 20 19 6 1 9 2 5 6 6 10 17 7 6 6 10 9 18 13 16 19 20 20 17 14 9 8 9 10 6 7 8
22 22 23 24 24 23 21 20 19 18 19 20 22 21 22 2 4 7 1 2 0 7 7 9 7 5 5 7 7 14 17 17 19 21 21 23 18 18 13 12 13 13 10 2 8
23 23 24 25 25 24 21 19 18 19 19 20 22 18 10 3 7 6 2 2 7 9 16 4 5 5 7 6 11 18 16 17 18 18 18 19 23 20 19 14 17 17 15 10 9
25 25 27 26 26 24 22 19 19 18 20 22 18 13 3 5 3 6 1 6 12 6 7 8 6 9 5 6 7 8 13 14 16 19 20 19 21 17 21 14 16 16 13 11 10
26 28 28 28 27 25 21 19 18 18 19 15 10 6 6 11 1 3 8 5 6 9 2 8 12 7 10 9 7 14 14 16 15 14 14 11 20 27 20 16 15 19 20 14 9
29 29 29 30 28 25 21 19 18 17 16 12 7 3 6 3 5 6 8 11 10 11 7 10 10 5 5 7 8 9 8 7 2 9 12 8 25 23 12 16 18 18 15 18 10
30 31 32 32 29 25 20 18 17 17 14 7 4 4 7 8 3 3 6 8 9 10 12 12 3 3 5 6 6 5 9 12 16 11 13 11 25 25 18 17 18 20 16 17 17
31 34 34 32 28 21 17 15 13 14 6 5 10 4 8 4 4 6 10 2 5 5 7 6 4 5 3 3 4 7 11 12 19 4 10 13 22 18 15 21 20 18 20 18 17
33 34 35 30 21 16 17 6 2 1 6 8 5 7 15 1 4 5 5 4 8 5 4 7 5 6 11 10 12 13 17 17 20 12 13 13 18 22 14 16 19 21 12 19 20
36 34 32 24 16 11 10 4 9 8 7 12 15 17 12 4 3 8 8 4 4 7 8 5 6 8 14 14 14 14 15 18 17 13 13 16 21 23 16 16 18 19 21 19 21
37 35 30 20 16 13 7 5 10 12 4 10 14 6 7 9 8 8 8 2 5 7 9 6 8 13 14 13 15 14 14 16 20 15 12 16 20 22 26 17 18 21 19 20 21
39 35 27 18 9 9 6 11 12 9 2 5 5 2 5 6 6 15 6 3 1 7 9 8 10 13 12 16 15 17 14 20 19 10 10 6 18 16 20 22 19 18 18 19 17
41 33 23 8 14 9 8 11 10 1 2 6 7 7 3 5 6 6 12 5 8 13 8 12 12 4 11 9 11 16 14 20 23 10 9 10 10 15 9 16 21 17 22 19 18
40 30 20 3 8 13 17 14 8 1 3 5 7 5 7 8 10 1 5 7 9 12 12 7 6 4 3 10 10 16 8 14 16 4 12 15 12 20 16 21 24 20 22 25 18
39 22 11 6 5 18 17 9 1 1 3 6 7 10 10 12 10 3 3 7 8 3 5 7 5 4 3 5 16 12 4 4 4 4 12 12 5 8 18 22 25 25 23 25 29
35 11 3 7 6 13 18 2 1 7 10 12 11 14 15 14 3 7 5 7 3 2 4 4 5 7 4 9 15 10 5 4 6 9 13 12 10 14 19 19 22 21 25 25 27
29 8 4 3 6 10 3 1 2 9 10 11 13 10 6 17 10 9 8 8 9 14 5 5 5 16 16 12 10 14 6 6 3 3 2 6 18 18 20 18 18 26 21 20 22
23 6 1 3 3 5 1 4 5 11 11 7 8 8 11 11 10 10 7 7 9 13 6 4 8 7 15 14 9 9 7 8 2 4 6 8 11 8 13 19 26 32 27 24 10
3 2 3 2 2 1 1 4 9 10 7 3 8 10 9 9 7 8 6 10 10 8 9 9 4 7 8 5 7 8 4 4 3 4 4 5 4 8 12 16 23 30 31 24 31
7 1 5 3 0 2 3 10 13 14 5 6 5 6 7 8 8 12 8 9 9 6 8 5 4 5 14 17 7 6 5 5 3 5 3 7 10 10 8 14 17 25 22 24 23
6 3 5 3 2 3 8 13 17 6 2 3 5 8 9 9 6 2 5 9 7 5 5 1 3 4 6 3 1 1 9 5 4 1 7 6 6 6 8 13 15 18 19 21 24
3 4 3 2 4 6 8 7 11 12 11 3 4 6 6 6 8 6 13 7 8 10 10 4 4 6 8 13 12 17 19 16 9 3 12 12 20 4 10 9 14 19 19 22 18
2 3 4 4 4 10 8 8 12 12 10 10 8 12 10 2 9 10 10 18 15 8 3 2 5 9 14 17 18 19 21 17 14 13 14 16 5 6 5 7 5 11 17 20 22
3 3 5 6 8 9 9 5 8 11 9 9 7 11 12 8 10 17 14 11 7 7 3 3 6 9 17 18 18 20 16 18 11 9 11 10 4 5 11 7 10 11 13 18 17
12 9 3 5 5 5 4 11 14 11 2 4 9 12 13 14 16 10 12 14 13 14 11 3 4 4 9 11 14 12 6 2 1 4 10 6 5 7 6 10 9 7 16 15 19
Wind_Direction
349 346 342 339 336 334 332 331 331 327 324 327 328 324 324 323 320 326 234 251 222 282 300 300 278 258 264 242 247 294 232 242 246 255 264 288 310 309 288 290 317 314 338 55 154
348 345 342 340 337 333 330 329 330 328 325 327 330 329 328 329 319 275 236 220 260 295 300 312 306 245 214 237 217 201 228 230 244 262 279 297 299 303 320 311 307 315 319 96 115
345 342 339 337 335 331 328 325 325 323 321 325 330 327 329 331 285 159 172 292 307 285 275 284 280 288 281 250 235 235 241 250 248 254 274 278 279 294 304 294 279 289 2 323 151
345 341 338 336 335 332 327 323 321 318 317 321 327 326 329 294 23 169 164 75 327 285 276 268 240 238 225 238 260 263 256 247 248 259 269 273 285 284 292 285 292 305 313 344 235
344 340 335 333 332 331 326 320 317 315 314 317 324 330 348 246 244 148 154 226 306 258 240 275 331 289 248 264 244 250 265 271 270 271 266 273 269 273 273 278 290 293 299 309 296
343 341 338 332 329 327 324 317 314 311 312 314 317 329 263 270 136 158 291 272 260 322 310 324 300 319 305 305 301 302 289 281 271 261 260 262 274 273 264 264 265 276 280 292 313
341 337 334 332 327 324 318 313 308 310 315 321 316 317 261 252 315 291 266 294 290 289 16 308 340 11 341 327 305 320 310 304 282 273 274 284 267 257 265 257 265 248 264 268 259
341 336 333 329 324 321 313 306 302 312 317 320 309 299 258 216 252 260 356 325 331 347 306 297 258 225 254 270 297 300 283 282 15 267 281 245 268 262 274 254 254 258 268 265 246
340 338 331 330 326 321 306 300 301 303 307 303 309 197 274 204 225 35 319 292 335 302 328 291 225 232 299 285 313 250 270 268 273 248 263 260 254 260 257 261 252 248 257 261 270
346 343 339 335 330 322 306 311 303 292 303 251 265 266 275 241 95 320 289 258 292 294 292 229 220 199 246 192 239 248 269 281 280 248 247 259 266 273 268 248 249 249 244 244 262
349 344 341 338 334 324 328 360 7 320 233 247 227 234 293 257 17 285 301 357 270 272 273 313 348 283 270 269 275 287 291 292 296 320 327 302 291 288 296 301 288 245 243 238 242
350 346 341 335 332 320 313 273 18 300 304 277 263 261 273 336 276 283 311 203 305 302 304 329 287 290 314 313 312 302 290 277 281 290 293 298 289 291 294 291 286 283 266 232 230
348 346 341 328 316 299 246 348 337 12 301 294 220 233 201 198 249 260 254 347 319 334 310 299 291 302 301 304 292 289 283 282 284 292 277 271 276 287 291 284 278 280 267 260 219
345 344 338 323 314 316 329 353 350 12 299 181 172 173 174 209 243 230 150 162 287 279 273 274 280 292 338 319 320 298 294 302 303 304 277 255 275 266 281 288 288 288 275 269 258
343 342 330 325 306 313 351 350 339 6 42 186 129 155 217 215 271 297 148 148 230 249 263 262 283 8 287 315 348 301 307 295 296 288 310 285 283 287 273 270 279 282 283 274 271
342 343 326 41 280 296 339 324 296 320 281 138 149 212 210 243 280 192 221 190 227 248 256 291 342 312 84 333 305 285 281 301 279 256 268 271 262 274 269 275 286 277 280 281 278
341 339 308 284 266 341 340 318 21 230 221 39 353 355 324 289 276 213 313 282 276 43 330 314 302 336 118 313 317 318 61 341 324 311 270 273 296 264 300 283 261 270 276 272 279
339 337 286 276 330 333 329 342 323 303 15 3 350 312 279 286 251 3 332 303 124 186 233 279 308 292 264 303 295 296 233 189 267 274 283 298 269 272 260 272 278 275 281 271 286
340 356 291 272 336 341 5 1 236 347 18 357 330 311 349 0 3 343 342 319 26 37 21 355 302 328 319 317 315 296 274 259 319 344 310 250 268 268 269 272 331 333 275 269 269
337 305 88 131 312 329 30 285 306 40 6 358 309 356 346 337 343 349 343 14 11 15 48 351 313 316 302 321 300 343 310 294 70 262 243 242 286 271 14 3 347 343 332 326 270
330 259 138 217 301 319 229 268 306 334 338 336 308 314 307 313 340 315 313 314 24 355 350 331 217 296 306 280 321 340 9 20 177 224 277 310 272 47 21 5 347 329 326 326 306
323 327 191 269 338 218 264 324 337 318 38 300 296 284 321 332 310 309 314 330 37 5 322 55 272 276 293 291 146 207 223 177 154 285 293 286 273 65 28 28 332 328 318 325 295
317 252 227 210 337 331 312 344 307 332 331 311 294 319 336 312 313 324 284 289 45 358 360 337 308 318 302 294 101 27 294 253 207 158 253 271 277 100 46 12 348 310 322 329 296
296 346 348 319 345 4 353 312 331 304 295 290 246 286 303 340 322 304 318 315 338 305 333 290 213 230 264 269 276 286 283 283 239 240 271 271 298 15 64 21 344 321 313 298 306
308 9 16 313 335 312 286 291 294 330 14 359 349 338 321 322 308 291 313 317 305 309 329 219 251 257 266 282 286 286 290 309 292 267 288 311 29 81 122 58 330 282 287 307 315
20 7 348 293 298 288 283 292 328 327 345 317 288 338 341 322 295 291 285 285 263 287 290 254 268 292 282 279 277 282 281 280 291 352 304 315 66 196 164 172 238 275 288 289 281
12 351 332 283 298 332 326 342 317 321 295 270 306 310 303 289 287 296 289 282 263 273 281 311 280 299 274 280 314 295 248 59 319 318 286 355 280 330 152 225 264 298 316 338 352